Find the Weather for any City, State or Zip Code, or Country:


Mobile Weather


Questions? Comments?
Contact Greg


Winchester Trails
Subdivision Website


New! Stream Houston NOAA Weather Radio Here!


Current Maps

Tropical (Hurricane)

Temperature

Heat Index

Windchill

Humidity

Radar

Dew Point

Wind

Visibility

Visible Satellite

Satellite

Fronts

Jet Stream

Flight Rules


Forecast Maps

Temperature Forecast

Maximum Temperature Forecast

Minimum Temperature Forecast

Dewpoint Forecast

Prevalent Weather

12Hr Probability of Precip.

Sky Cover


Health Maps

Houston Pollen/Mold Report

UV Forecast

Air Quality

Peak Air Quality Index


Miscellaneous

NOAA Aviation Weather

NWS Houston/Galveston

National Weather Service (main page)

National Hurricane Center

Hurricane Archive

Harris Co. Flood Warning System

Harris Co. Storm Risk Calculator

U.S. Drought Monitor

TX Lake/Reservoir Data & Levels

Eric 'SciGuy' Berger Weather Blog

Dr. Jeff Masters Weather Blog

Houston Traffic

TxDOT Highway Conditions

Houston Electricity Outage Tracker

Galveston CruiseCam


This Station's Data

NOAA-Style Reports

Weather Detail

Daily Tabular Data


This Station's Position:
Lat. 29° 54' 14.18" N
Lon. 95° 34' 24.45" W
Elevation 112 ft (34.1 m)


Visit this station's partner in Cypress, 8sm west of here!


Weather Instruments:


Vantage Pro 2


Current Weather Conditions

This page refreshes automatically every 5 minutes and is best viewed at 1024x768 or higher resolution.
Powered by Ambient Weather Virtual Weather Station V14.01

Page last refreshed April 20, 2014 at 5:46 am CDT (UTC -6)

Metric & Other Conversions for Current Observations
Current Temp17.3 °CHigh Temp18.6 °CLow Temp17.1 °C
Current Dew Point15.8 °CHeat Index20.5 °CWind Chill17.3 °C
Barometer1021.04 mbarBarometer765.8 mmHgBarometer14.81 psi
Density Altitude:  173 ft (52.7 m)Pressure Altitude:  -93 ft (-28.3 m)
Barometer readings for a Standard Day (59.0 °F/15.0 °C @ sea level):  29.92" Hg, 1013.25 mbar, 757.83 mmHg, 14.70 psi


 HARRIS COUNTY  -  Dense Fog Advisory Dense Fog Advisory  
 WALLER COUNTY  -  Dense Fog Advisory Dense Fog Advisory  
 FORT BEND COUNTY  -  Dense Fog Advisory Dense Fog Advisory  
 MONTGOMERY COUNTY  -  Dense Fog Advisory Dense Fog Advisory  
 LIBERTY COUNTY  -  Dense Fog Advisory Dense Fog Advisory  
 CHAMBERS COUNTY  -  Dense Fog Advisory Dense Fog Advisory  
 GALVESTON COUNTY  -  Dense Fog Advisory Dense Fog Advisory  
 BRAZORIA COUNTY  -  Dense Fog Advisory Dense Fog Advisory  


Local Radar Other Radar Graphics Local Satellite
Click for larger image WunderMap®

High Definition Radar (KHOU)

Regional Radar
Click for larger image
Radar & Satellite Graphics by Weather Underground




National Weather Service Forecast for: Jersey Village TX
Issued by: National Weather Service Houston, TX
Updated: 3:11 am CDT Apr 20, 2014
 
Today

Patchy Fog
Patchy
Fog
Tonight

Isolated T-Storms. Chance for Measurable Precipitation 20%
Isolated
T-Storms
Monday

Isolated T-Storms. Chance for Measurable Precipitation 20%
Isolated
T-Storms
Monday
Night

Isolated T-Storms. Chance for Measurable Precipitation 20%
Isolated
T-Storms
Tuesday

Isolated T-Storms. Chance for Measurable Precipitation 20%
Isolated
T-Storms
Tuesday
Night

Partly Cloudy
Partly
Cloudy
Wednesday

Mostly Sunny
Mostly
Sunny
Wednesday
Night

Partly Cloudy
Partly
Cloudy
Thursday

Partly Sunny
Partly
Sunny
Hi 81 °F Lo 62 °F Hi 81 °F Lo 63 °F Hi 83 °F Lo 64 °F Hi 83 °F Lo 66 °F Hi 83 °F

Dense Fog Advisory
Hazardous Weather Outlook
 

Today
 
Patchy fog before 9am. Otherwise, partly sunny, with a high near 81. Light southeast wind increasing to 5 to 10 mph in the morning.
Tonight
 
Isolated showers and thunderstorms. Mostly cloudy, with a low around 62. South wind 5 to 10 mph. Chance of precipitation is 20%.
Monday
 
Isolated showers and thunderstorms. Partly sunny, with a high near 81. South wind 5 to 10 mph. Chance of precipitation is 20%.
Monday Night
 
Isolated showers and thunderstorms. Mostly cloudy, with a low around 63. South wind 5 to 10 mph becoming southwest after midnight. Chance of precipitation is 20%.
Tuesday
 
Isolated showers and thunderstorms. Partly sunny, with a high near 83. North wind around 5 mph. Chance of precipitation is 20%.
Tuesday Night
 
Partly cloudy, with a low around 64.
Wednesday
 
Mostly sunny, with a high near 83.
Wednesday Night
 
Partly cloudy, with a low around 66.
Thursday
 
Partly sunny, with a high near 83.
Thursday Night
 
Mostly cloudy, with a low around 67.
Friday
 
A 20 percent chance of showers and thunderstorms. Partly sunny, with a high near 84.
Friday Night
 
A 20 percent chance of showers and thunderstorms. Mostly cloudy, with a low around 67.
Saturday
 
A 20 percent chance of showers and thunderstorms. Partly sunny, with a high near 84.

 

Forecast from NOAA-NWS for Jersey Village TX.

Follow this link for a current verbose area forecast discussion from the NWS.


Radar and Satellite Imagery


US Current Fronts w/Radar

Southcentral Infrared Satellite

US Jet Stream

Visible Satellite
The WunderMap is interactive - pan and zoom with your mouse.
WunderMap here requires Flash.
If accessing from an iOS device, you can download the Wundermap App from the App Store.
  
Click to go to WUnderground
Sea Surface Temp & Tropical System Map
Map Graphics by Weather Underground


Rainfall Information
Yesterday's Rain: 0 in
Last Rainfall:
Surrounding Area Rainfall Data
NOAA Avg. Rainfall For: Month to Date
(1971-2000)
Month to Date
(1981-2010)
Year to Date
(1971-2000)
Year to Date
(1981-2010)
Jersey Village: 2.17 in
(-1.28 in)
2.11 in
(-1.22 in)
12.88 in
(-4.69 in)
12.87 in
(-4.68 in)
Intercontinental (KIAH) 2.28 in 2.07 in 12.3 in 12.06 in
Hobby (KHOU) 2.23 in 2.06 in 12.68 in 12.34 in
NOTE:  The numbers in parenthesis under the Jersey Village data above indicate how far ahead (green) or behind (red) this station's rain total is compared to the NOAA 1971-2000 and 1981-2010 climate normals data for today's date (Apr 20).


Other Current Regional Observations (METARs)

(Ordered by straight-line statute mile distance from this weather station)

A Few More Observations/METARs of Interest to Greg


Weather Almanac

NOAA/NWS Daily Historical Weather Browser
Major SE Texas Weather Events

Records and Normals for Apr 20
Temperature Forecast Normal Record
High 81° 77° 91°
(2011)
Low 61°
58°
36°
(2013)
Highs & Lows Observed at This Station
  Today Yesterday For 4/2014 For 2014
High Temp 65.5°F at 12:00am 82.9°F at 3:17pm 87.4°F on 4/1/14 87.4°F on 4/1/14
Low Temp 62.8°F at 1:45am 56.1°F at 6:11am 40.6°F on 4/15/14 22.6°F on 1/7/14
High Dew Point 61.2°F at 2:13am 61.9°F at 1:25pm 71.5°F on 4/3/14 71.5°F on 4/3/14
Low Dew Point 59.6°F at 1:37am 52.6°F at 6:11am 24.9°F on 4/15/14 8.4°F on 1/6/14
High Humidity 91% at 1:56am 90% at 6:47am 92% on 4/4/14 98% on 2/5/14
Low Humidity 86% at 12:00am 44% at 3:19pm 28% on 4/8/14 25% on 1/17/14
High Heat Index 70.6°F at 12:00am 83.1°F at 3:17pm 92.6°F on 4/1/14 92.6°F on 4/1/14
High Barometer 30.04in at 12:59am 30.08in at 10:29am 30.21in on 4/15/14 30.60in on 1/6/14
Low Barometer 30.00in at 4:59am 29.96in at 5:44pm 29.54in on 4/6/14 29.53in on 3/11/14
High Wind Speed 4mph at 2:09am 10mph at 6:08pm 23mph on 4/8/14 25mph on 3/16/14
High Wind Gust 5mph at 12:06am 10mph at 6:08pm 23mph on 4/8/14 25mph on 3/12/14
Low Wind Chill 62.8°F at 1:45am 56.1°F at 6:11am 34.1°F on 4/15/14 11.5°F on 3/3/14

Sun & Moon
Sunrise:  6:48am Sunset:  7:51pm Moon Phase:
72%
Moonrise:  12:25am Moonset:  11:20am
Star Chart...

 

Local Trend Graphs


MesoNet Local Weather Exchange® Network

Station ID

City 
(Click for Map Location)

Neighborhood 
(Click for History)
Last Update
(Date & Time)

Temp
 (°)

Dew
Point (°)
Humidity 
(%)
Wind 
(mph)
From
the
Gust
(mph) 
Pressure (in) Hourly
Rain (in)
KTXHOUST61 Houston Willow Point 04/20 05:44:04 63.5 29.0 27 0 SSW 0 30.03 0.00
KTXHOUST186 Houston Winchester Trails 04/20 05:45:04 63.0 60.0 91 0 SSW 0 30.15 0.00
KTXHOUST178 Houston Schroeder Oaks Village 04/20 05:45:05 63.1 61.0 93 0 South 0 30.09 0.00
KTXHOUST291 Houston Steeplechase 04/20 05:45:04 63.1 62.0 97 0 West 0 30.02 0.00
KTXHOUST216 Houston Cutten Green 04/20 05:44:36 62.7 60.0 92 0 SE 0 30.11 0.00
KTXHOUST232 Houston Rolling Fork 04/20 05:40:31 62.3 61.0 95 0 SW 6 30.11 0.00
KTXHOUST349 Houston Champions Crossing 04/20 05:35:00 61.3 61.0 99 0 NNE 0 29.94 0.00
KTXHOUST218 Houston Woodland Trails West 04/20 05:44:59 61.9 61.0 96 0 SSW 0 30.12 0.00
KTXHOUST121 Houston Norchester, K5WH 04/20 05:29:48 63.1 62.0 95 0 SW 2 30.09 0.00
MUR202 Houston MesoWest MELNDY TX US UPR 04/20 05:00:00 69.0 0.0 0 0

North 0 0.00 0.00
KTXHOUST170 Houston Champions Park 04/20 05:36:29 62.5 60.0 91 0 South 0 30.11 0.00
KTXHOUST342 Houston Lakewood Forest at Cypresswood 04/20 05:44:27 63.1 60.0 89 0 NW 0 29.94 0.00
KTXHOUST233 Houston Woods of Wimbledon 04/20 05:45:04 64.0 58.0 81 0 SSW 0 30.14 0.00
KTXHOUST260 Houston Villages at Lakepointe 04/20 05:45:02 63.3 52.0 67 2 NNW 2 30.19 0.00
KTXHOUST169 Houston Lakewood Forest 04/20 05:45:05 63.1 59.0 87 0 South 0 30.13 0.00
KTXHOUST261 Cypress Heatherwood Village 04/20 05:45:02 62.2 61.0 95 0 North 0 29.59 0.00
KTXSPRIN88 Spring Champions Woods 04/20 05:37:08 61.0 59.0 94 0 North 0 29.84 0.00
KTXCYPRE11 Cypress Weiser Airpark 04/20 05:44:54 62.7 58.0 83 0 SSW 0 29.34 0.00
KTXCYPRE42 Cypress Great Oaks 04/20 05:40:33 61.3 60.0 97 0 SSE 0 30.13 0.00
KTXHOUST271 Houston Middlegate Village 04/20 05:45:04 62.6 62.0 99 0 SW 0 29.94 0.00
KTXSPRIN69 Spring Colony Creek Village 04/20 05:40:07 62.6 62.0 97 0 NW 0 30.17 0.00
KTXCYPRE5 Cypress NW Houston (Wincrest Falls) 04/20 05:45:05 63.2 61.0 93 0 ESE 0 30.05 0.00
KTXSPRIN9 Spring Wimbledon 04/20 05:45:04 61.6 58.0 87 0 WSW 0 30.02 0.00
KTXTOMBA9 Tomball Spring Cypress/Eldridge 04/20 05:44:47 62.7 61.0 94 0 East 0 30.13 0.00
KTXHOUST29 Houston Concord Colony - K5EBQ 04/20 05:36:34 63.5 62.0 94 0 SE 0 30.13 0.00
KTXSPRIN83 Spring Memorial NorthWest 04/20 05:45:01 61.5 60.0 95 0 North 0 29.75 0.00
KTXHOUST265 Houston Spring Shadows 04/20 05:44:57 63.3 62.0 95 0 SSW 0 30.13 0.00
KTXHOUST159 Houston Copper Village 04/20 05:45:03 63.2 62.0 94 0 South 0 30.05 0.00
KTXSPRIN5 Spring Memorial Northwest 04/20 05:45:05 61.3 60.0 94 0 SSE 0 30.06 0.00
KTXHOUST200 Houston Binglewood 04/20 05:45:06 65.0 18.0 16 0 SW 0 30.16 0.00
KTXCYPRE26 Cypress Longwood - HepWX 04/20 05:44:37 63.3 60.0 89 0 SSW 0 29.96 0.00
KTXTOMBA10 Tomball Treeline 04/20 05:41:46 61.6 61.0 99 0 West 1 30.14 0.00
KTXHOUST42 Houston Forest Pines - 77092 04/20 05:31:28 64.8 63.0 93 0 South 0 29.98 0.00
KDWH Houston Hooks Official Station 04/20 05:36:00 61.0 61.0 100 0 North --- 30.14 ---
KIAH Houston Intercontinental Official Station 04/20 04:59:00 63.0 63.0 100 0 North --- 30.11 ---
KMCJ Houston / Dunn Helistop Official Station 04/20 05:35:00 63.0 63.0 100 0 North --- 30.09 ---
KSGR Houston Hull Official Station 04/20 05:10:00 65.0 63.0 93 0 North --- 30.11 ---
KTXCYPRE54 Cypress Canyon Lakes West 04/20 05:45:06 63.1 61.0 93 1 South 2 30.22 0.00
KTXCYPRE65 Cypress Heritage Towne Lake 04/20 05:45:04 63.7 62.0 93 0 SW 2 30.11 0.00
KTXCYPRE67 Cypress Prairie Bend - Bridgeland 61.3 61.3 61.0 98 0 South 0 29.92 0.00